Theta_e
363 363 367 367 368 366 357 349 344 344 345 345 346 347 346 347 349 350 350 349 350 350 351 351 351 350 348 350 351 350 349 350 353 353 352 353 352 349 351 353 353 353 354 355 355 354 355 355 356 356 356 356 355 355 354 353 353 354 355 354 354 356 355
360 361 364 362 365 369 360 352 351 349 348 348 347 347 348 348 350 351 350 351 350 350 351 352 351 350 348 349 350 350 350 350 352 353 352 353 352 349 350 351 353 354 355 355 355 355 355 356 356 356 356 356 355 356 357 354 352 353 355 354 354 354 355
358 361 361 358 361 365 355 349 350 351 351 350 348 348 348 349 350 350 351 352 351 351 352 353 352 351 350 350 351 350 349 350 352 354 353 354 352 351 350 351 351 353 356 356 355 356 356 356 357 355 356 356 355 355 357 356 353 354 355 355 354 354 355
360 359 357 355 356 357 353 350 350 350 351 350 348 348 349 349 351 351 351 352 352 352 352 353 353 353 352 352 352 352 350 350 351 353 354 354 353 353 353 352 351 352 355 356 355 355 355 356 357 356 355 356 356 354 355 357 356 355 356 356 356 355 354
355 353 352 352 354 357 355 353 351 350 350 351 350 349 349 349 351 352 352 352 353 352 352 352 354 353 354 353 353 354 353 352 351 351 354 354 355 356 356 355 354 353 354 355 355 355 355 356 356 356 356 356 357 355 355 356 356 356 357 357 358 357 355
351 351 351 352 354 358 357 354 352 352 351 351 351 350 349 350 350 352 354 353 353 353 353 353 354 355 355 354 354 354 355 355 353 352 353 354 355 356 356 357 356 355 355 354 355 354 354 356 356 355 355 355 357 356 356 356 357 355 355 356 358 358 357
348 349 351 353 354 355 355 355 354 353 352 352 351 352 352 352 351 353 355 355 355 355 355 355 356 357 356 355 356 356 356 356 355 355 354 353 354 355 355 356 357 357 355 354 354 354 354 355 356 355 354 354 356 356 356 357 357 356 355 355 356 356 355
342 343 346 350 352 352 353 354 354 353 354 353 353 353 353 353 353 354 356 357 356 357 356 355 356 356 355 354 355 356 356 357 357 356 356 356 355 355 355 355 356 356 356 355 354 353 353 353 354 355 355 354 356 356 356 357 357 356 355 355 355 355 355
339 339 340 342 346 349 351 352 351 353 354 353 354 354 353 354 354 353 354 354 354 355 355 353 352 353 355 355 357 356 355 356 355 355 356 357 356 356 355 355 355 355 355 355 354 353 352 353 352 354 355 355 355 355 355 356 357 356 355 355 356 356 355
337 338 338 337 340 343 347 349 350 352 352 353 354 354 353 354 353 352 352 351 351 353 353 351 352 354 356 356 357 355 354 355 354 355 355 355 356 355 355 355 354 355 355 354 354 353 353 353 351 352 354 355 355 355 354 356 356 356 356 355 355 355 355
337 337 336 335 336 337 340 343 344 347 349 350 352 352 351 352 352 353 353 352 352 353 352 351 353 355 354 354 355 354 354 355 353 353 354 355 355 355 354 354 353 353 354 354 354 353 353 353 352 351 353 354 355 354 355 355 355 355 355 356 355 354 354
336 335 334 334 335 335 336 337 337 340 341 343 346 347 346 346 347 349 350 351 352 352 350 351 354 355 352 353 355 354 355 355 354 353 354 354 355 354 353 353 351 351 352 352 353 353 353 353 352 351 352 352 353 353 354 355 354 354 355 355 355 354 353
335 334 333 333 333 333 334 334 335 336 336 337 339 340 341 342 343 344 346 349 352 350 349 350 353 354 352 351 353 354 354 353 354 354 354 354 354 354 353 353 352 350 349 350 351 352 352 352 352 352 351 351 350 351 353 353 354 354 354 354 355 354 354
333 331 330 331 331 332 332 332 333 333 334 334 334 335 336 338 339 342 344 347 349 349 350 352 352 351 351 350 351 352 353 353 353 353 353 354 355 354 355 354 353 352 349 349 349 350 351 351 352 351 351 351 351 351 351 352 353 354 354 353 354 354 353
331 329 329 329 329 330 330 329 330 331 331 332 332 333 334 334 336 339 342 345 349 350 351 351 351 351 351 350 350 351 351 350 350 350 351 353 353 354 354 354 354 353 350 347 347 349 350 351 351 351 351 350 351 350 350 351 352 352 353 353 353 353 354
329 328 327 326 327 327 328 328 328 329 330 330 330 331 332 334 337 339 341 345 349 351 351 350 350 350 349 350 350 350 350 350 350 350 351 351 351 351 352 352 352 352 352 350 348 348 351 352 351 351 350 351 351 351 351 351 351 352 351 352 352 352 353
328 327 326 325 326 326 325 325 326 327 328 328 328 329 330 333 337 340 341 342 345 347 348 349 349 349 349 350 350 350 350 351 351 352 352 352 352 351 352 353 352 352 351 350 349 352 353 352 352 350 350 350 350 351 352 351 351 352 351 351 351 351 351
328 327 326 326 326 325 324 324 324 324 326 327 327 329 330 331 335 338 338 339 340 341 344 345 346 347 348 348 348 348 348 348 349 351 352 352 352 352 353 354 353 353 353 351 352 353 354 352 352 351 350 350 350 351 352 352 353 353 352 352 352 351 351
326 326 325 326 326 325 324 323 324 323 323 324 326 327 327 328 332 335 334 333 336 338 339 341 343 344 345 346 346 345 346 346 346 346 347 350 352 352 353 353 353 353 353 354 353 354 354 353 353 352 351 351 350 350 350 351 353 354 353 354 353 352 353
325 324 324 324 325 326 325 324 322 322 322 323 323 323 324 326 330 334 331 328 330 331 331 333 336 337 339 342 343 345 346 346 345 343 343 345 347 348 349 350 351 352 353 355 355 355 354 354 353 354 353 353 352 351 351 350 351 352 352 352 352 352 353
324 323 322 323 324 324 325 324 322 322 321 321 322 323 323 324 328 332 331 328 327 328 327 328 329 331 332 334 337 340 342 342 342 342 343 342 342 344 346 348 349 350 351 352 353 355 355 355 355 354 354 354 353 353 352 351 351 351 351 351 352 352 352
324 322 321 322 321 321 323 323 321 320 320 320 322 324 324 322 325 330 331 327 326 328 327 326 325 325 327 329 331 333 335 336 336 337 337 336 335 337 343 346 348 349 349 349 350 351 353 354 354 354 354 354 354 354 353 352 351 351 350 350 350 351 352
322 320 319 319 318 319 321 321 319 318 319 321 323 324 323 322 323 327 327 324 324 324 324 323 321 321 321 323 325 327 329 330 332 334 334 333 332 333 337 339 340 341 343 344 346 348 349 350 351 352 352 353 354 354 354 354 353 352 353 352 351 351 351
319 318 318 317 317 318 318 318 317 318 320 323 323 324 322 321 322 324 324 324 323 324 324 323 323 322 321 320 319 322 324 325 327 331 332 332 332 334 335 335 335 335 336 337 338 340 343 346 347 347 350 353 353 353 353 353 353 354 354 354 353 353 353
316 316 317 316 316 316 316 316 317 318 319 321 322 323 322 320 320 323 324 324 324 324 324 325 325 325 325 322 319 319 322 323 324 325 326 325 326 327 330 331 333 334 335 335 335 335 335 337 338 338 340 345 349 352 353 353 354 355 355 355 354 354 354
315 316 316 316 316 316 316 316 317 317 318 319 320 321 321 320 321 323 323 324 324 324 324 324 324 325 325 324 321 320 322 323 324 324 323 321 320 320 322 325 327 329 332 334 336 336 335 336 336 336 337 337 339 342 345 346 348 349 350 352 352 353 355
316 316 317 316 316 316 316 317 318 318 318 319 319 320 321 321 322 322 323 323 323 322 322 322 323 323 323 323 323 323 324 323 323 323 321 319 319 320 321 322 324 325 327 329 332 335 337 338 338 340 340 338 335 337 340 343 344 344 345 347 349 351 353
317 317 317 317 316 316 317 318 318 318 319 319 319 320 321 322 321 321 322 321 321 321 321 321 322 322 322 322 323 323 324 323 322 322 321 321 322 322 323 323 324 325 326 327 329 331 333 335 337 339 341 340 339 340 343 345 347 348 348 349 350 351 353
317 317 317 317 316 316 317 318 318 318 318 318 318 319 319 320 320 319 319 319 319 320 320 320 320 320 321 321 322 322 323 322 322 322 322 323 323 324 324 324 324 324 325 325 327 328 329 329 331 334 338 338 338 340 343 347 349 350 351 352 353 353 353
316 316 316 316 317 317 317 317 317 317 317 317 317 318 318 319 319 318 318 318 318 319 319 319 320 320 321 321 322 322 322 322 322 323 323 324 324 324 324 324 324 324 324 325 326 328 329 330 333 335 338 340 340 342 346 348 346 341 338 339 341 342 341
316 316 316 316 316 316 316 316 316 316 316 316 316 316 317 317 318 317 317 317 317 318 318 318 319 320 320 320 320 321 321 321 322 323 323 323 323 323 324 324 324 324 324 324 325 327 327 328 331 333 334 334 336 338 339 338 334 328 323 323 325 328 332
315 316 316 315 315 315 316 315 315 315 315 314 314 315 316 316 316 316 316 316 317 318 317 317 318 318 317 318 319 319 319 320 320 322 321 321 321 321 321 322 322 323 323 323 323 323 323 324 326 326 326 326 326 326 326 325 325 324 322 320 320 324 329
315 315 315 314 315 315 315 314 314 314 314 313 314 314 315 315 315 315 315 316 316 316 316 316 316 316 315 316 316 317 318 318 318 319 319 319 319 320 319 320 321 321 322 322 323 324 324 324 324 324 324 323 323 322 321 321 321 321 321 322 323 326 329
314 314 314 314 314 314 314 313 312 312 313 313 313 313 314 314 313 314 314 314 314 314 314 314 314 314 315 315 315 316 316 316 317 317 317 317 318 318 318 318 318 319 319 320 322 323 323 323 323 323 322 322 322 322 322 322 322 322 323 325 327 328 329
314 314 314 314 314 313 312 312 311 312 313 313 313 312 313 313 313 312 313 313 313 313 313 313 314 314 315 315 315 314 315 315 315 316 316 316 316 316 316 316 316 317 318 318 318 320 320 321 322 322 322 322 322 322 323 323 324 325 327 327 327 326 326
313 314 314 313 312 312 311 311 312 312 313 312 312 312 312 311 311 311 311 312 312 313 313 313 313 314 314 314 314 314 314 315 315 315 316 316 316 316 316 316 316 316 317 317 317 317 318 320 321 321 321 322 322 322 322 323 325 326 326 326 325 325 326
313 313 313 312 311 311 311 312 312 311 311 311 310 310 310 310 311 311 311 311 312 312 312 312 313 313 313 313 313 314 314 315 315 315 316 316 316 316 316 316 317 317 317 317 318 318 318 319 320 320 321 322 323 322 322 322 324 324 324 325 327 327 328
312 312 311 311 311 311 311 311 310 310 310 309 310 310 310 310 311 311 311 312 312 312 312 312 312 312 312 312 312 313 314 315 315 315 315 314 315 315 315 316 316 316 316 316 316 317 318 318 319 319 321 323 324 324 324 324 325 325 325 326 327 327 327
Wind_Speed
8 5 5 5 5 6 7 12 20 24 25 27 29 31 31 32 33 34 35 36 36 34 33 32 31 30 29 28 28 27 27 24 20 20 20 19 20 20 17 17 18 18 18 18 17 16 14 13 13 12 12 11 11 9 9 10 10 11 11 10 9 9 9
7 5 5 4 4 4 7 10 7 12 16 22 28 31 29 30 32 33 34 36 36 35 34 33 32 32 31 29 28 27 28 27 23 20 19 19 21 21 19 18 17 17 17 16 16 15 14 14 14 12 12 12 12 10 9 10 11 11 11 10 10 10 10
6 4 2 5 4 3 12 18 14 12 12 17 25 30 30 30 32 34 33 34 35 34 34 34 33 32 31 30 28 27 27 27 25 21 19 19 20 19 19 18 18 17 16 15 15 15 14 14 14 13 13 13 13 12 10 10 11 11 11 10 10 11 11
3 4 6 7 6 6 15 18 11 10 14 20 24 27 29 32 34 34 34 34 33 33 33 33 33 32 31 30 29 27 26 27 26 22 19 19 19 18 18 18 17 17 17 16 15 16 16 14 14 14 14 14 13 13 12 11 10 11 11 10 10 11 12
7 9 9 7 7 5 9 15 17 18 20 21 21 22 27 33 34 33 33 34 33 33 34 33 33 32 31 30 28 27 26 25 25 23 21 19 18 17 18 18 17 17 18 18 16 16 17 17 16 15 15 15 14 13 13 11 10 11 12 12 11 11 11
6 7 6 5 7 7 8 12 17 22 22 22 22 23 25 29 31 31 31 32 32 31 31 30 29 29 29 28 27 25 24 23 23 23 21 20 19 18 18 17 17 17 17 17 18 17 17 18 18 16 16 16 16 15 14 13 11 10 11 13 13 12 11
6 6 6 5 6 6 8 11 14 16 17 21 23 21 20 23 26 27 26 28 28 27 26 26 26 26 25 22 19 17 18 19 20 21 21 21 20 19 19 18 18 17 17 17 18 19 18 18 19 18 17 17 17 17 15 15 14 12 11 12 13 12 11
8 7 6 5 4 4 6 9 10 10 10 12 13 13 14 16 21 22 21 21 18 15 18 15 10 11 12 13 14 13 13 16 19 20 19 20 21 21 20 20 19 18 18 18 18 18 19 18 19 20 19 18 18 18 17 16 17 15 13 13 13 13 12
10 9 8 7 6 6 6 5 5 6 7 8 7 9 10 10 13 15 15 14 11 12 15 7 9 9 10 15 21 21 18 17 19 21 20 18 20 21 21 21 21 21 20 20 19 18 19 20 19 20 21 21 19 19 18 18 18 17 16 16 16 15 14
8 9 8 8 7 8 8 6 5 6 7 8 6 6 7 7 8 10 9 8 10 17 18 8 7 10 12 18 24 24 22 19 17 19 19 17 18 20 20 20 21 22 22 21 20 20 20 21 21 20 21 22 22 20 20 20 20 20 19 18 17 17 16
7 8 8 8 8 9 10 9 8 8 8 8 7 6 8 8 8 8 9 10 13 19 17 12 15 15 10 13 18 18 20 21 19 18 18 19 20 20 19 18 18 21 22 21 21 21 21 22 23 22 22 23 23 22 22 21 20 21 22 22 20 18 17
6 7 8 8 8 8 9 10 11 11 12 12 12 10 9 10 10 14 19 18 15 15 14 13 19 17 11 11 14 14 16 19 19 18 17 20 22 21 20 18 17 18 20 20 20 20 22 23 24 25 25 25 24 23 22 21 21 21 22 23 23 21 19
6 7 7 7 8 8 8 10 11 13 15 17 17 14 12 13 14 17 21 19 15 14 16 13 14 14 11 10 12 14 16 15 14 12 13 16 19 20 20 20 20 19 19 20 20 19 19 22 26 27 26 26 26 25 23 22 22 22 22 23 24 24 23
9 8 8 7 8 8 9 8 9 13 16 18 20 19 18 18 17 18 20 17 13 14 18 17 14 13 12 12 12 13 14 14 13 11 11 13 15 17 18 19 19 20 20 20 19 18 17 19 24 27 28 27 26 26 25 23 23 23 23 22 22 23 25
11 10 9 9 8 9 9 8 8 11 15 17 18 20 21 21 19 19 18 14 13 16 19 20 18 16 14 13 13 12 10 12 14 14 14 13 13 15 17 17 17 17 19 19 18 17 17 18 22 25 28 29 28 28 27 26 26 25 24 24 23 23 24
12 11 10 9 9 8 8 9 10 12 15 15 15 17 19 21 21 22 20 17 17 19 19 19 19 17 16 14 13 11 10 10 11 11 11 11 10 11 12 14 14 15 17 18 17 15 14 15 19 23 27 28 29 30 29 28 28 27 26 26 26 26 25
12 12 11 9 9 8 8 9 11 12 14 13 13 13 15 18 20 21 20 19 19 19 19 19 18 17 17 16 15 13 10 9 8 7 7 8 8 7 8 9 11 14 16 18 17 14 11 10 13 18 23 25 28 30 30 30 29 28 28 28 27 28 28
11 11 9 8 8 8 8 8 10 11 13 13 13 14 14 15 17 19 18 17 18 18 20 20 18 17 17 16 15 13 11 9 7 6 5 5 5 6 7 7 8 10 13 15 15 12 11 10 9 12 15 18 22 26 28 28 28 28 28 29 28 28 28
11 10 9 9 8 7 8 9 10 12 11 12 14 14 14 14 16 18 18 17 17 18 20 19 18 17 17 15 13 10 8 8 7 5 3 3 4 4 5 5 5 6 7 9 11 11 11 11 10 9 10 12 14 17 21 23 25 26 26 27 27 28 28
10 10 10 9 8 8 10 10 11 12 14 15 17 17 15 15 15 17 19 19 19 19 19 18 18 17 17 16 12 8 7 8 7 5 3 2 2 2 2 2 2 2 1 3 5 7 8 9 9 9 9 9 10 12 14 17 19 22 24 25 25 26 27
10 11 9 8 6 7 9 11 12 13 14 16 18 18 17 15 15 16 18 19 19 18 18 18 17 17 17 16 13 10 8 7 6 6 5 5 5 3 2 2 3 3 3 2 1 2 4 5 7 8 8 9 9 10 12 14 16 18 20 22 22 22 24
9 9 8 7 7 8 10 12 12 13 12 12 16 18 17 17 16 15 15 16 16 15 15 16 15 15 15 14 12 10 8 6 5 5 6 7 7 6 5 4 3 3 3 3 2 2 1 1 5 7 7 8 8 10 12 15 17 18 19 20 20 20 21
11 11 10 11 12 14 16 14 13 15 15 13 15 16 16 18 19 17 15 15 15 14 13 13 13 13 13 12 11 10 8 7 7 7 8 9 9 8 7 6 5 5 4 4 4 3 3 3 5 7 7 7 8 10 13 15 16 16 16 16 16 17 18
15 15 14 15 17 19 19 17 18 20 19 17 16 15 13 13 17 18 17 15 14 13 13 12 12 11 11 11 11 11 10 10 10 9 9 10 11 10 10 9 8 7 7 6 6 6 5 5 6 8 7 6 7 9 12 15 14 12 12 13 14 15 16
15 16 17 19 21 21 20 21 22 22 21 19 17 14 12 10 12 16 17 15 14 14 14 13 12 11 10 10 11 10 10 10 11 11 11 12 12 12 12 12 11 10 9 9 8 8 8 7 7 10 10 8 8 9 11 13 13 11 12 13 14 16 17
14 17 19 21 22 22 21 22 23 22 21 19 16 13 12 10 10 12 14 14 15 15 15 13 12 10 9 10 11 10 10 11 12 12 13 13 14 13 13 13 13 13 12 12 11 11 10 9 9 11 13 11 9 10 11 13 14 14 14 14 15 16 17
19 20 20 20 21 21 22 22 22 21 19 17 14 13 12 11 12 12 12 13 14 14 13 11 10 10 10 10 11 11 11 12 12 13 14 14 14 14 12 12 13 13 14 14 13 13 13 12 11 13 15 14 12 12 12 13 14 14 14 14 15 15 16
20 20 20 19 19 19 20 20 20 19 17 15 14 13 13 13 14 13 12 12 13 12 10 10 9 9 10 10 11 11 12 13 13 14 15 15 15 15 14 13 12 13 14 14 14 13 14 15 15 16 17 16 14 13 13 12 13 14 14 13 13 13 14
18 18 19 19 18 17 18 19 18 17 17 15 14 13 12 13 13 12 11 11 10 8 8 9 9 9 10 10 11 12 12 13 14 15 15 15 16 16 16 15 14 14 14 15 15 16 17 17 18 18 18 18 17 16 15 13 12 12 12 12 11 11 12
19 19 18 19 18 16 16 18 16 15 15 14 13 12 10 11 12 11 10 9 8 6 7 8 8 8 9 10 11 12 13 14 14 15 15 15 16 17 17 17 17 16 16 17 18 18 18 18 18 17 18 18 18 17 14 11 10 11 12 12 12 12 13
20 20 19 18 17 15 14 15 14 13 12 11 11 11 9 9 9 9 8 8 7 6 7 8 8 8 9 10 10 12 13 14 15 15 15 15 15 16 17 17 17 18 17 18 18 17 17 17 16 15 15 15 15 15 12 10 12 15 16 16 15 15 16
19 20 19 17 15 13 13 13 12 12 10 9 9 9 8 8 8 8 8 8 7 7 8 8 8 9 10 10 11 12 14 15 16 17 17 16 16 16 16 16 17 18 18 18 18 19 19 18 17 17 18 18 18 18 18 18 19 21 21 21 18 17 16
17 18 17 15 14 13 12 12 11 9 8 7 7 7 7 7 8 8 9 9 9 9 9 9 10 10 11 12 12 12 14 16 17 18 18 18 18 19 19 18 18 19 19 20 20 20 20 20 20 20 21 22 23 23 24 24 24 24 24 23 20 18 18
17 17 16 14 14 13 12 11 9 7 6 7 7 7 7 8 8 9 10 10 11 10 10 10 11 11 11 11 12 13 14 16 17 18 19 20 20 21 21 21 21 21 21 20 19 19 20 21 22 22 22 23 24 25 26 26 26 25 24 23 21 21 22
18 17 16 15 15 13 11 8 7 6 7 8 8 7 6 7 8 8 9 10 10 10 10 11 11 10 10 11 12 13 14 15 16 17 18 19 20 21 21 21 21 22 22 21 19 19 20 22 23 23 23 24 24 23 24 27 27 25 23 22 23 24 26
18 17 17 16 14 11 8 6 7 9 10 9 8 6 5 5 6 8 8 8 8 10 10 11 11 11 11 12 12 13 14 15 16 16 17 19 20 21 22 22 21 20 21 21 21 20 19 20 21 22 23 25 26 24 24 26 27 25 23 23 24 25 27
19 18 18 16 12 10 9 9 10 12 10 8 6 5 5 5 6 6 6 7 8 9 10 10 11 11 12 13 14 14 15 16 17 17 18 19 20 21 23 23 23 22 21 20 20 20 20 20 22 22 21 22 24 24 24 25 25 25 25 25 25 25 24
20 20 17 14 14 15 14 13 11 9 7 6 6 5 5 5 5 5 5 6 7 8 9 9 10 11 12 14 15 14 15 17 17 18 19 20 21 22 23 24 24 24 24 23 21 20 20 21 21 21 20 20 21 23 24 24 24 25 26 26 26 25 24
Wind_Direction
188 192 179 162 149 149 154 172 178 176 173 174 178 182 183 184 185 186 187 190 192 193 194 196 197 199 200 200 203 206 207 202 199 205 210 211 212 211 208 202 199 200 201 205 210 214 218 219 221 223 222 222 219 216 225 231 229 221 218 224 225 225 229
187 198 190 135 102 109 73 61 104 154 162 169 175 180 182 182 184 187 189 191 193 194 194 196 198 199 201 203 204 207 207 204 202 206 211 212 210 209 211 211 210 208 209 214 218 218 219 220 220 221 221 223 222 220 231 237 231 223 221 223 222 224 229
186 195 172 112 114 110 75 63 57 78 117 160 174 177 177 178 185 189 190 192 193 194 195 196 199 200 202 204 205 207 207 205 206 208 209 208 207 209 214 216 219 218 215 218 220 220 221 220 219 221 223 226 227 224 228 235 230 224 224 224 222 224 230
120 73 60 88 105 79 86 102 117 123 145 172 179 179 177 178 186 191 192 194 194 195 195 196 199 201 202 203 204 205 205 206 209 212 212 210 209 212 214 215 219 222 220 221 224 224 222 221 221 223 223 224 228 228 225 230 232 227 224 225 227 231 235
67 63 54 69 93 90 106 131 158 173 178 182 180 183 184 182 187 191 193 195 196 197 198 198 200 200 201 203 204 205 205 207 210 213 216 217 214 214 214 215 218 222 223 223 227 229 224 222 224 226 225 222 226 228 224 226 233 232 227 227 234 238 241
73 82 80 93 120 149 159 153 168 179 183 185 185 190 192 189 189 191 192 194 196 199 199 199 200 200 201 202 204 207 208 210 212 214 217 220 220 219 218 218 220 223 224 223 227 232 229 227 226 225 222 221 224 226 224 225 231 235 230 230 235 240 246
72 91 107 136 156 163 149 147 167 177 178 184 187 189 193 194 193 191 189 190 193 197 197 199 201 200 197 196 196 201 207 212 215 217 220 222 224 225 223 223 224 222 224 226 228 231 233 233 229 224 221 220 221 223 225 228 230 233 232 232 238 241 245
59 62 74 101 127 128 121 136 158 163 162 174 178 178 187 197 199 193 184 182 181 185 193 192 178 160 155 163 179 192 201 208 211 211 216 221 224 226 226 226 226 223 225 229 229 229 231 233 232 228 225 222 221 223 227 232 231 232 232 232 237 241 243
65 60 58 65 73 80 97 123 141 132 130 136 149 171 177 187 199 196 186 175 155 171 190 162 90 104 136 170 192 201 205 211 213 209 208 212 217 221 224 226 227 225 224 226 227 227 228 231 234 233 228 224 224 224 226 230 230 230 232 233 234 237 241
76 70 64 63 61 64 82 102 106 97 100 99 109 159 159 153 181 196 197 182 177 200 208 191 162 185 185 188 196 200 203 211 218 214 210 210 212 216 220 224 225 223 222 224 226 227 228 228 230 232 228 224 225 226 226 228 230 230 233 235 234 235 238
78 75 67 63 62 62 67 72 71 72 77 75 77 112 134 139 160 169 157 156 185 204 204 195 199 200 185 186 193 197 205 213 219 219 217 215 213 213 217 220 221 220 220 223 226 229 231 229 226 227 228 226 226 228 229 230 231 232 233 235 236 237 239
80 76 70 63 63 64 63 61 56 56 59 57 63 82 106 117 124 129 131 141 170 178 163 177 199 196 180 187 192 196 206 212 216 221 225 225 221 219 222 223 221 219 219 220 223 228 234 234 230 227 228 230 231 232 233 234 234 235 237 238 237 238 240
84 76 71 66 68 67 65 61 53 52 52 51 56 62 71 86 94 105 122 144 172 160 140 154 183 184 179 186 197 209 215 213 215 218 223 228 227 226 230 232 229 227 223 222 222 226 234 239 236 232 231 232 234 235 236 236 235 238 241 242 241 240 240
91 82 72 65 67 69 70 64 52 55 56 53 54 55 57 65 70 81 104 132 153 139 133 139 144 153 163 169 183 205 218 221 226 226 223 227 229 228 232 236 237 233 228 225 226 228 235 241 239 236 233 233 234 235 236 236 235 238 242 243 243 243 243
99 89 80 73 69 71 77 75 63 61 60 57 57 57 57 61 63 68 81 103 116 115 124 132 132 139 149 156 168 181 192 205 215 222 225 229 232 233 236 239 239 232 227 226 227 231 241 246 245 239 235 234 235 235 234 235 235 237 239 241 242 243 244
108 100 94 87 80 77 82 86 82 74 66 61 60 62 63 66 72 75 73 80 94 101 112 120 122 127 132 135 143 151 159 172 187 202 209 212 217 226 233 235 232 227 224 223 223 231 244 248 246 242 238 236 236 236 235 235 236 238 239 240 242 243 244
112 108 105 101 96 92 90 91 91 88 83 75 69 70 71 74 83 88 86 86 94 100 107 112 113 114 115 116 118 121 127 137 151 167 177 181 190 201 209 213 217 220 220 218 219 228 239 240 236 235 236 237 236 235 235 236 238 240 241 241 242 243 244
112 109 106 104 105 102 100 98 93 95 100 98 90 86 81 78 83 87 88 91 98 105 109 109 109 107 103 103 108 113 113 109 109 119 140 158 169 183 189 191 201 213 215 216 220 229 237 238 231 222 222 228 232 233 235 237 239 241 243 245 245 245 247
108 107 102 93 85 77 79 83 78 78 87 96 101 94 78 74 84 89 89 94 101 106 109 109 110 109 104 100 104 111 108 99 93 89 91 120 147 167 180 183 193 204 208 212 218 226 233 236 235 226 213 212 219 226 231 235 237 240 242 245 247 248 249
104 104 99 92 87 80 82 88 85 76 72 79 92 99 90 85 95 100 95 94 96 97 98 101 103 103 102 103 108 117 113 101 95 90 71 51 77 123 158 158 150 154 180 204 208 219 230 235 238 237 228 221 218 218 223 227 231 235 238 241 245 247 249
105 103 99 100 99 92 99 106 100 86 75 73 83 97 103 99 102 109 102 90 88 87 85 87 88 87 88 94 100 107 105 97 95 96 74 34 25 36 58 72 69 68 60 55 104 198 234 250 254 250 244 240 237 233 232 230 230 232 234 236 239 241 245
112 105 106 108 89 82 103 111 98 82 76 74 78 86 92 89 93 107 106 93 88 87 83 80 75 68 68 72 75 79 78 69 61 60 47 28 15 16 28 29 12 16 29 30 37 71 85 312 292 278 260 249 247 247 246 243 241 241 241 241 242 243 245
113 108 106 96 81 87 106 107 87 76 79 84 84 84 86 84 86 95 100 95 92 88 79 72 64 55 52 50 48 47 46 39 26 19 21 20 14 9 14 15 1 347 338 329 328 347 16 9 336 314 290 265 255 256 256 255 255 257 259 260 260 259 259
113 112 105 91 84 90 97 89 77 79 84 86 85 86 89 86 82 86 90 88 84 80 72 64 53 42 35 30 28 26 25 24 22 18 12 9 7 3 1 2 3 360 355 346 337 340 353 1 343 324 308 286 269 266 266 266 269 276 281 279 274 272 271
111 107 99 92 90 89 85 81 81 82 81 79 79 81 89 89 80 78 80 78 74 68 60 52 44 33 23 12 7 10 12 11 13 14 10 3 358 355 352 349 349 349 350 351 351 348 349 354 342 319 307 298 287 281 280 282 286 291 290 286 283 281 279
106 103 97 93 92 89 84 83 82 80 76 74 75 77 83 89 83 74 71 70 66 56 44 36 28 20 10 358 355 0 2 0 360 359 358 354 349 346 345 346 345 344 344 345 348 347 344 346 336 311 302 300 294 286 285 288 288 288 286 286 287 287 285
102 100 97 95 95 91 85 82 81 79 75 73 74 75 81 89 87 77 71 64 55 43 32 24 16 7 360 353 353 354 351 348 347 345 343 344 345 344 345 347 346 345 345 343 340 334 325 317 306 297 297 303 304 299 297 296 292 287 284 284 287 289 288
100 97 96 96 97 93 88 84 82 79 74 72 74 75 80 87 83 75 69 59 46 33 22 15 7 358 353 352 350 349 345 342 342 344 346 349 351 349 349 353 351 346 344 341 335 324 312 304 300 299 302 309 314 314 314 312 307 303 299 296 295 296 296
103 98 95 93 92 93 91 86 83 79 74 70 72 71 74 77 73 66 61 51 37 27 20 12 4 358 357 355 352 350 349 345 344 346 348 351 353 350 349 350 348 343 340 336 330 322 315 312 311 309 308 312 317 319 321 322 322 320 321 319 315 312 312
108 103 99 96 94 94 93 88 85 81 76 70 66 65 65 64 59 53 50 42 30 29 26 13 5 5 4 359 352 350 347 345 345 348 350 352 352 350 348 348 345 343 341 338 334 330 327 328 327 321 314 313 317 322 327 334 340 341 343 343 335 327 323
113 109 105 102 100 98 94 91 86 80 74 68 62 60 59 56 49 42 37 32 26 27 24 15 9 9 5 358 352 348 346 347 351 355 357 360 1 359 359 358 354 351 351 350 350 348 347 348 347 342 336 331 330 332 334 331 327 328 332 336 332 324 319
113 113 112 110 109 107 102 96 90 83 75 66 58 57 57 55 46 32 23 18 17 19 19 15 14 10 3 358 353 349 349 351 352 351 349 352 356 357 358 358 355 352 350 350 351 349 347 348 347 344 340 337 333 329 324 319 317 317 323 330 331 326 321
118 119 120 118 117 117 114 104 95 90 84 74 64 59 55 51 41 29 22 19 19 20 21 19 17 10 1 356 352 349 350 351 350 346 343 344 347 347 346 347 349 349 346 345 346 345 343 342 338 334 332 329 327 324 320 317 315 316 320 327 328 324 321
126 126 127 129 129 127 123 116 109 105 100 90 77 65 57 52 42 32 31 29 22 16 13 12 10 7 2 357 351 349 349 349 346 344 342 341 341 340 339 338 339 339 337 337 338 338 336 332 329 327 325 322 319 318 316 314 314 317 321 324 322 318 315
136 139 142 140 137 134 129 126 128 125 115 105 95 82 67 53 36 21 19 21 16 9 6 3 1 1 1 357 350 346 344 342 341 340 338 335 334 334 333 332 331 331 328 325 325 326 326 324 321 320 320 318 314 312 309 308 310 315 318 317 314 312 310
144 148 148 142 139 139 138 138 137 125 113 105 98 87 65 32 8 352 348 354 0 3 4 3 1 1 360 356 352 347 342 337 335 334 333 332 331 330 329 328 328 329 327 324 322 322 322 320 318 316 317 314 310 307 305 305 309 313 312 309 309 309 305
148 145 144 143 139 132 124 121 119 112 103 90 74 62 43 19 4 354 349 350 354 356 357 360 1 358 354 350 347 343 339 336 335 335 334 334 333 332 331 329 329 329 328 327 326 325 323 320 317 315 316 315 311 307 305 305 308 310 308 307 308 308 305
148 141 139 138 130 120 114 111 108 101 91 78 66 53 39 24 11 3 355 351 353 353 350 352 355 352 348 345 341 337 335 334 335 337 336 335 333 332 331 330 329 326 325 323 322 321 318 316 314 314 316 317 315 312 310 310 309 307 307 307 305 304 305